| time (UTC) | temp C | wind direction | speed KPH | gust KPH | rain 1hr cm | rain 24hr cm | rain mn cm | humidity % | barometer mb |
| 20260507050108 | 14 | 300 | 0.0 | 0.0 | 0.00 | 0.00 | 0.00 | 72 | 1011.1 |
| 20260507044546 | 14 | 300 | 0.0 | 0.0 | 0.00 | 0.00 | 0.00 | 70 | 1011.2 |
| 20260507043032 | 15 | 300 | 0.0 | 0.0 | 0.00 | 0.00 | 0.00 | 69 | 1011.1 |
| 20260507041513 | 15 | 300 | 0.0 | 0.0 | 0.00 | 0.00 | 0.00 | 67 | 1011.2 |
| 20260507040013 | 16 | 300 | 0.0 | 0.0 | 0.00 | 0.00 | 0.00 | 65 | 1011.2 |
| 20260507034551 | 16 | 300 | 0.0 | 0.0 | 0.00 | 0.00 | 0.00 | 63 | 1011.1 |
| 20260507033051 | 17 | 300 | 0.0 | 0.0 | 0.00 | 0.00 | 0.00 | 59 | 1011.0 |
| 20260507031534 | 18 | 300 | 0.0 | 0.0 | 0.00 | 0.00 | 0.00 | 55 | 1011.0 |
| 20260507030037 | 18 | 300 | 0.0 | 0.0 | 0.00 | 0.00 | 0.00 | 53 | 1010.9 |
| 20260507024517 | 18 | 300 | 0.0 | 0.0 | 0.00 | 0.00 | 0.00 | 51 | 1011.0 |
| 20260507023014 | 19 | 300 | 8.0 | 0.0 | 0.00 | 0.00 | 0.00 | 49 | 1011.0 |
| 20260507021623 | 19 | 296 | 8.0 | 0.0 | 0.00 | 0.00 | 0.00 | 48 | 1011.1 |
| 20260507020058 | 20 | 288 | 8.0 | 0.0 | 0.00 | 0.00 | 0.00 | 47 | 1010.8 |
| 20260507014559 | 20 | 291 | 8.0 | 0.0 | 0.00 | 0.00 | 0.00 | 45 | 1010.9 |
| 20260507013038 | 21 | 277 | 9.7 | 0.0 | 0.00 | 0.00 | 0.00 | 45 | 1010.8 |
| 20260507011540 | 21 | 284 | 9.7 | 0.0 | 0.00 | 0.00 | 0.00 | 44 | 1010.7 |
| 20260507010032 | 21 | 293 | 8.0 | 0.0 | 0.00 | 0.00 | 0.00 | 43 | 1010.7 |
| 20260507004522 | 21 | 284 | 8.0 | 0.0 | 0.00 | 0.00 | 0.00 | 41 | 1010.8 |
| 20260507003004 | 21 | 288 | 14.5 | 0.0 | 0.00 | 0.00 | 0.00 | 43 | 1010.9 |
| 20260507001502 | 21 | 288 | 14.5 | 0.0 | 0.00 | 0.00 | 0.00 | 44 | 1010.7 |
| 20260507000044 | 21 | 298 | 16.1 | 0.0 | 0.00 | 0.00 | 0.00 | 43 | 1010.6 |
| 20260506234552 | 22 | 280 | 16.1 | 0.0 | 0.00 | 0.00 | 0.00 | 44 | 1010.5 |
| 20260506233025 | 23 | 293 | 11.3 | 0.0 | 0.00 | 0.00 | 0.00 | 42 | 1010.6 |
| 20260506231527 | 23 | 284 | 9.7 | 0.0 | 0.00 | 0.00 | 0.00 | 42 | 1010.7 |
| 20260506230006 | 22 | 287 | 11.3 | 0.0 | 0.00 | 0.00 | 0.00 | 41 | 1011.0 |
| 20260506224506 | 22 | 291 | 9.7 | 0.0 | 0.00 | 0.00 | 0.00 | 41 | 1011.3 |
| 20260506223055 | 22 | 308 | 9.7 | 0.0 | 0.00 | 0.00 | 0.00 | 41 | 1011.5 |
| 20260506221547 | 22 | 281 | 6.4 | 0.0 | 0.00 | 0.00 | 0.00 | 41 | 1011.7 |
| 20260506220035 | 22 | 289 | 8.0 | 0.0 | 0.00 | 0.00 | 0.00 | 41 | 1011.9 |
| 20260506214532 | 22 | 277 | 8.0 | 0.0 | 0.00 | 0.00 | 0.00 | 38 | 1012.1 |
| 20260506213012 | 22 | 280 | 12.9 | 0.0 | 0.00 | 0.00 | 0.00 | 42 | 1012.1 |
| 20260506211511 | 22 | 274 | 8.0 | 0.0 | 0.00 | 0.00 | 0.00 | 41 | 1012.2 |
| 20260506204602 | 22 | 302 | 6.4 | 0.0 | 0.00 | 0.00 | 0.00 | 40 | 1012.4 |
| 20260506203057 | 22 | 278 | 6.4 | 0.0 | 0.00 | 0.00 | 0.00 | 39 | 1012.6 |
| 20260506201558 | 22 | 282 | 8.0 | 0.0 | 0.00 | 0.00 | 0.00 | 40 | 1012.7 |
| 20260506200109 | 21 | 279 | 8.0 | 0.0 | 0.00 | 0.00 | 0.00 | 40 | 1012.6 |
| 20260506194606 | 21 | 248 | 4.8 | 0.0 | 0.00 | 0.00 | 0.00 | 41 | 1012.7 |
| 20260506193050 | 21 | 285 | 9.7 | 0.0 | 0.00 | 0.00 | 0.00 | 42 | 1012.9 |
| 20260506191549 | 21 | 233 | 6.4 | 0.0 | 0.00 | 0.00 | 0.00 | 41 | 1013.0 |
| 20260506190030 | 21 | 288 | 6.4 | 0.0 | 0.00 | 0.00 | 0.00 | 43 | 1013.1 |
| 20260506184530 | 20 | 218 | 3.2 | 0.0 | 0.00 | 0.00 | 0.00 | 38 | 1013.2 |
| 20260506183011 | 20 | 283 | 4.8 | 0.0 | 0.00 | 0.00 | 0.00 | 42 | 1013.4 |
| 20260506181513 | 20 | 133 | 1.6 | 0.0 | 0.00 | 0.00 | 0.00 | 42 | 1013.5 |
| 20260506180051 | 20 | 143 | 3.2 | 0.0 | 0.00 | 0.00 | 0.00 | 42 | 1013.5 |
| 20260506174548 | 19 | 138 | 3.2 | 0.0 | 0.00 | 0.00 | 0.00 | 41 | 1013.6 |
| 20260506173029 | 18 | 131 | 1.6 | 0.0 | 0.00 | 0.00 | 0.00 | 41 | 1013.6 |
| 20260506171538 | 18 | 128 | 0.0 | 0.0 | 0.00 | 0.00 | 0.00 | 41 | 1013.6 |
| 20260506170008 | 18 | 102 | 1.6 | 0.0 | 0.00 | 0.00 | 0.00 | 42 | 1013.7 |
| 20260506164506 | 17 | 36 | 0.0 | 0.0 | 0.00 | 0.00 | 0.00 | 42 | 1013.9 |
| 20260506163051 | 17 | 36 | 1.6 | 0.0 | 0.00 | 0.00 | 0.00 | 43 | 1014.0 |
| 20260506161550 | 16 | 35 | 1.6 | 0.0 | 0.00 | 0.00 | 0.00 | 43 | 1014.2 |
| 20260506160034 | 16 | 304 | 0.0 | 0.0 | 0.00 | 0.00 | 0.00 | 46 | 1014.1 |
| 20260506154520 | 15 | 304 | 1.6 | 0.0 | 0.00 | 0.00 | 0.00 | 48 | 1014.5 |
| 20260506153100 | 15 | 304 | 0.0 | 0.0 | 0.00 | 0.00 | 0.00 | 48 | 1014.4 |
| 20260506151608 | 14 | 304 | 0.0 | 0.0 | 0.00 | 0.00 | 0.00 | 51 | 1014.4 |
| 20260506150035 | 12 | 304 | 0.0 | 0.0 | 0.00 | 0.00 | 0.00 | 60 | 1014.6 |
| 20260506144534 | 11 | 304 | 0.0 | 0.0 | 0.00 | 0.00 | 0.00 | 66 | 1014.6 |
| 20260506143035 | 9 | 304 | 0.0 | 0.0 | 0.00 | 0.00 | 0.00 | 78 | 1014.7 |
| 20260506141517 | 7 | 304 | 0.0 | 0.0 | 0.00 | 0.00 | 0.00 | 81 | 1014.8 |
| 20260506140111 | 6 | 304 | 0.0 | 0.0 | 0.00 | 0.00 | 0.00 | 81 | 1014.9 |
| 20260506134558 | 5 | 304 | 0.0 | 0.0 | 0.00 | 0.00 | 0.00 | 82 | 1014.9 |
| 20260506133042 | 5 | 304 | 0.0 | 0.0 | 0.00 | 0.00 | 0.00 | 83 | 1014.7 |
| 20260506131538 | 5 | 304 | 0.0 | 0.0 | 0.00 | 0.00 | 0.00 | 84 | 1014.5 |
| 20260506130019 | 4 | 304 | 0.0 | 0.0 | 0.00 | 0.00 | 0.00 | 84 | 1014.5 |
| 20260506124517 | 4 | 304 | 0.0 | 0.0 | 0.00 | 0.00 | 0.00 | 84 | 1014.3 |
| 20260506123058 | 3 | 304 | 0.0 | 0.0 | 0.00 | 0.00 | 0.00 | 83 | 1014.1 |
| 20260506121556 | 3 | 304 | 0.0 | 0.0 | 0.00 | 0.00 | 0.00 | 83 | 1013.9 |
| 20260506120043 | 4 | 304 | 0.0 | 0.0 | 0.00 | 0.00 | 0.00 | 83 | 1013.8 |
| 20260506114545 | 4 | 304 | 0.0 | 0.0 | 0.00 | 0.00 | 0.00 | 82 | 1013.7 |
| 20260506113040 | 4 | 304 | 0.0 | 0.0 | 0.00 | 0.00 | 0.00 | 82 | 1013.7 |
| 20260506111540 | 4 | 304 | 0.0 | 0.0 | 0.00 | 0.00 | 0.00 | 81 | 1013.6 |
| 20260506110046 | 4 | 304 | 0.0 | 0.0 | 0.00 | 0.00 | 0.00 | 81 | 1013.6 |
| 20260506104537 | 4 | 304 | 0.0 | 0.0 | 0.00 | 0.00 | 0.00 | 81 | 1013.6 |
| 20260506103036 | 4 | 304 | 0.0 | 0.0 | 0.00 | 0.00 | 0.00 | 80 | 1013.6 |
| 20260506101548 | 5 | 304 | 0.0 | 0.0 | 0.00 | 0.00 | 0.00 | 80 | 1013.5 |
| 20260506100014 | 5 | 304 | 0.0 | 0.0 | 0.00 | 0.00 | 0.00 | 79 | 1013.3 |
| 20260506094516 | 5 | 304 | 0.0 | 0.0 | 0.00 | 0.00 | 0.00 | 78 | 1013.4 |
| 20260506093103 | 5 | 304 | 0.0 | 0.0 | 0.00 | 0.00 | 0.00 | 77 | 1013.3 |
| 20260506091553 | 5 | 304 | 0.0 | 0.0 | 0.00 | 0.00 | 0.00 | 76 | 1013.3 |
| 20260506090036 | 6 | 304 | 0.0 | 0.0 | 0.00 | 0.00 | 0.00 | 75 | 1013.2 |
| 20260506084533 | 6 | 304 | 0.0 | 0.0 | 0.00 | 0.00 | 0.00 | 78 | 1013.2 |
| 20260506083014 | 6 | 304 | 0.0 | 0.0 | 0.00 | 0.00 | 0.00 | 78 | 1013.0 |
| 20260506081512 | 5 | 304 | 0.0 | 0.0 | 0.00 | 0.00 | 0.00 | 79 | 1012.7 |
| 20260506073038 | 6 | 304 | 0.0 | 0.0 | 0.00 | 0.00 | 0.00 | 78 | 1012.8 |
| 20260506071530 | 6 | 304 | 0.0 | 0.0 | 0.00 | 0.00 | 0.00 | 76 | 1012.6 |
| 20260506061545 | 8 | 304 | 0.0 | 0.0 | 0.00 | 0.00 | 0.00 | 70 | 1012.1 |